Regional Weather Roundup
Issued by NWS

Home | Current Version | Previous Version | Graphics & Text | Print | Product List | Glossary On
Versions: 1 2 3 4 5 6 7 8 9 10 11 12 13 14 15 16 17 18 19 20 21 22 23 24 25 26 27 28 29 30 31 32 33 34 35 36 37 38 39 40 41 42 43 44 45 46 47 48 49 50
000
ASUS45 KSLC 030610
RWRUT

UTAH REGIONAL WEATHER ROUNDUP
NATIONAL WEATHER SERVICE SALT LAKE CITY UT
1200 AM MDT FRI JUL 03 2015

UTZ001>011-023>025-030700-

NORTHERN UTAH

CITY           SKY/WX    TMP DP  RH WIND       PRES   REMARKS
BRIGHAM CITY   PTCLDY    82  51  34 CALM      30.00S
HILL AFB       PTCLDY    77  48  35 E14       30.03F
LOGAN          CLEAR     71  54  54 E3        30.02S
OGDEN          PTCLDY    77  48  35 S7        30.00S
PROVO AIRPORT  PTCLDY    72  45  37 S6        30.02S
SALT LAKE CITY MOCLDY    80  49  33 S5        29.97F
VERNAL         PTCLDY    78  42  27 N10       30.06S
WENDOVER       CLEAR     84  43  23 CALM      30.00F
HEBER CITY     PTCLDY    61  46  59 CALM      30.12S
WEST JORDAN    CLEAR     75  43  31 CALM      30.02F

$$

UTZ012>022-026-027-030700-

SOUTHERN/CENTRAL UTAH

CITY           SKY/WX    TMP DP  RH WIND       PRES   REMARKS
BLANDING       PTCLDY    71  54  56 E5        30.23R
BRYCE CANYON   CLOUDY    60  51  72 NW7       30.30F
CEDAR CITY     CLOUDY    73  47  39 SE7       30.14F
DELTA          PTCLDY    81  44  27 SE5       30.05S
HANKSVILLE     PTCLDY    79  36  21 CALM      29.98S
MILFORD        CLOUDY    75  51  43 SW6       30.08S
MOAB/CYNLANDS  CLEAR     80  45  28 SW6       29.95S
PRICE          PTCLDY    77  32  19 NW5       30.10S
ST GEORGE      PTCLDY    88  54  31 SE9       29.93F
KANAB          CLOUDY    70  61  73 NE3       30.15S

$$

REGIONAL REPORTS     COLORADO/ARIZONA

CITY           SKY/WX    TMP DP  RH WIND       PRES   REMARKS
CRAIG, CO      PTCLDY    67  45  45 CALM      30.17S
GRAND JUNCTION PTCLDY    79  47  32 E5        29.99R
RIFLE          PTCLDY    71  42  35 SE7       30.09R
MONTROSE       PTCLDY    76  49  38 SE10      30.12S
CORTEZ         CLEAR     70  57  63 SW9       30.20S
PAGE, AZ       CLOUDY    84  50  30 CALM      29.99F
GRAND CANYON   CLOUDY    64  53  67 NE7       30.23F
KINGMAN        CLEAR     81  50  33 SW8       29.98F
FLAGSTAFF      CLOUDY    67  50  54 CALM      30.26F

$$

REGIONAL REPORTS    NEVADA/IDAHO/WYOMING

CITY           SKY/WX    TMP DP  RH WIND       PRES   REMARKS
LAS VEGAS, NV  PTCLDY    97  50  20 S13       29.80S HX  94
ELY            MOCLDY    66  51  58 CALM      30.22F
ELKO           CLEAR     71  48  43 NW6       30.10S
POCATELLO, ID  CLEAR     74  43  32 E6        30.00F
BURLEY         CLEAR     68  51  54 SW8       29.96S
EVANSTON, WY   PTCLDY    69  42  37 CALM      30.25S
ROCK SPRINGS   PTCLDY    63  49  60 NE7       30.24S
KEMMERER       CLEAR     64  45  48 N9G17     30.28S

$$


USA.gov is the U.S. government's official web portal to all federal, state and local government web resources and services.